COSMOS 1375 DEB, 16208

Orbit data source: Space-Track

COSMOS 1375 DEB, 16208 is space debris in LEO originally from a launch on Sun, 06 Jun 1982 UTC launched from the Plesetsk Missile And Space Complex (PKMTR). Debris objects in space refer to the collection of defunct objects orbiting the Earth. Examples of debris include non-operational satellites, rocket bodies, and fragments generated from explosions, collisions, or faulty payload assembly.

Loading next visibility...
Identifier
16208, 1982-055K
Orbit
LEO
Country
Flag of CISCIS
Related business
Manufacturer
Unknown
Mission
Spacecraft
Bus & Motor
Unknown
Mass
Unknown
Launch date (UTC)
1982-06-06 (44 years ago)
Launch vehicle
Unknown
Launch site
Plesetsk Missile And Space Complex (PKMTR)
Object type
Payload
Rocket body
Debris
Shape & HBR
Unknown shape, 0.4 m
Radar Cross Section
Medium (>0.1 m² and <1 m²)

Expand to show TLE details & history
Last TLE update: 2 days ago

TLE from 2 days ago
0 COSMOS 1375 DEB
1 16208U 82055K   26171.41690722 -.00000046  00000-0  35650-4 0  9999
2 16208  65.8353 337.8803 0051725 239.8282 141.4341 13.76188162 42631
Epoch: 2026-06-20T10:00Z
TLE epoch observation values (Epoch: 2026-06-20T10:00:20.783Z)
Latitude
19.66922°
Longitude
-71.65746°
Altitude
1,008.819 km
Speed
7.334 km/s
True Right ascension
23h 08m 14s
True Declination
19° 33' 51"
Sunlit
Object was in daylight at epoch
Visualization orbit readout
Latitude
Unknown
Longitude
Unknown
Altitude
Unknown
Speed
Unknown
Apparent Right ascension
Unknown
Apparent Declination
Unknown
Sunlit
N/A
Visualization observer readout
Local Sidereal Time
02:00:08
Azimuth
Unknown
Elevation
Unknown
Doppler factor
Unknown
Orbital elements
Apogee altitude
1,013.993 km
Perigee altitude
937.915 km
Semi-major axis
7,354.091 km
Eccentricity
0.00517
Inclination
65.8353°
RAAN
337.8803°
Arg. of periapsis
239.8282°
True anomaly
141.80175°
Mean anomaly
141.4341°
Eccentric anomaly
141.61811°
Mean motion
3.44152 °/min
Orbital period
104.61 mins
BSTAR
0.00003565
Loading maneuver chart data...
Computing Atmospheric mass density...
Loading historical data...
Loading historical data...
Loading historical data...
Loading historical data...
Loading historical data...
Loading historical data...
Loading historical data...

Documentation

Showing up to 5 results
|